Hourly Data Report for November 30, 2017

VICTORIA UNIVERSITY CS
BRITISH COLUMBIA

48°27'25.200" N
123°18'16.600" W
60.10 m
1018598
71783
WYJ

Download Data

Hourly Data (November 2017)
Hourly Data Report for November 30, 2017
TIME
LST
Temp Definition
°C
Dew Point Definition
°C
Rel Hum Definition
%
Precip. Amount Definition
mm

Wind Dir Definition
10's deg

Wind Spd Definition
km/h
Visibility Definition
km
Stn Press Definition
kPa
Hmdx Definition


Wind Chill Definition


Weather Definition


00:00 8.5 6.1 85 0.0 13 3   101.44     LegendNANA
01:00 8.4 5.9 84 0.0 12 3   101.42     LegendNANA
02:00 7.8 6.3 91 0.2 12 2   101.34     LegendNANA
03:00 7.6 6.0 90 0.5 4 2   101.25     LegendNANA
04:00 7.8 5.7 87 0.0 11 2   101.18     LegendNANA
05:00 7.2 5.2 87 0.3 9 5   101.13     LegendNANA
06:00 7.7 5.1 84 0.0 15 4   101.05     LegendNANA
07:00 7.8 5.2 84 0.0 9 3   101.04     LegendNANA
08:00 8.0 5.5 84 0.0 17 1   101.03     LegendNANA
09:00 7.4 6.3 93 1.1 9 2   101.02     LegendNANA
10:00 7.1 6.5 96 1.7 0 1   101.07     LegendNANA
11:00 6.5 5.8 95 1.9 15 4   101.07     LegendNANA
12:00 6.5 5.8 95 0.5 11 4   101.05     LegendNANA
13:00 6.5 5.7 95 0.0 10 4   101.04     LegendNANA
14:00 6.5 5.8 96 0.6 10 4   101.03     LegendNANA
15:00 6.8 6.3 96 0.9 9 2   101.04     LegendNANA
16:00 7.0 6.5 97 0.0 9 1   101.03     LegendNANA
17:00 6.9 6.5 97 0.0 9 1   101.05     LegendNANA
18:00 6.7 6.3 97 0.0   0   101.07     LegendNANA
19:00 6.5 6.1 98 0.0   0   101.10     LegendNANA
20:00 6.0 5.6 98 0.0 24 2   101.12     LegendNANA
21:00 5.6 5.3 98 0.0 19 4   101.14     LegendNANA
22:00 5.3 5.0 98 0.0 19 3   101.17     LegendNANA
23:00 5.3 5.1 98 0.2 18 2   101.17     LegendNANA

Notes on Data Quality.

Legend

  • E = Estimated
  • M = Missing
  • NA = Not Available*
  • [empty] = Indicates an unobserved value
Date modified: